Location: Aressy
(43.2833°N, 0.3167°W)
Time: 21:02:43
(UTC+00:00)

SAR-Lupe-4 - Pass Details

Date: 28 January 2021
Orbit: 480 x 484 km, 98.2° (Epoch: 02 March)

Event Time Altitude Azimuth Distance (km) Brightness Sun altitude
Exits shadow 18:17:15 10° 28° (NNE) 1,652 5.9 -12.7°
Maximum altitude 18:20:36 40° 99° (E) 723 4.0 -13.3°
Drops below altitude 10° 18:23:58 10° 171° (S) 1,652 6.3 -13.9°
Sets 18:26:06 0° 179° (S) 2,526 7.3 -14.3°
